Find Starlink 11419

NORAD ID: 62883 Int'l Des: 2025-024 Owner: SPXS Country: US Constellation: starlink operational
LEOCIRCULAR

Live Position

Loading 3D Globe...

About Starlink 11419

Description loading...

Upcoming Passes

Passes for default location (London). Set your location on the main map for personalized predictions.

Altitude History

Loading altitude history...

Two-Line Element Set

1 62883U 25024E 26105.99388028 .00142083 00000-0 10885-2 0 9993
2 62883 42.9996 316.5918 0004027 265.9630 94.0778 15.70909064 69332
Epoch: Apr 15, 2026 • Age: 18 hours

Current Status

Altitude 366.2 km
Velocity 7.69 km/s
Sub-Earth Point -42.65°S, 100.23°E
Launch Date Feb 4, 2025
Age 1.1 years
Type internet

Technical Details

Classification Payload
Mass 960.00 kg
Dry Mass 910.00 kg
Total Mass 960.00 kg
Length 0.30 m
Diameter 4.10 m
Span 29.00 m
Shape Box + pan
Manufacturer SPXS
Bus Type Starlink V2MD
Phase Status In Orbit
Owner/State SPXS/US

Most Searched